sat.trackr.live / text

‹ back to catalog

STARLINK-5685

NORAD 55477 · 2023-015AE

PAYLOAD ACTIVE UNKNOWN

§ Identity

Operator
Country
US
Launch date
2023-02-02
Launch site
AFETR
Launch vehicle
Mass (kg)
RCS (m²)

Purposes: comms

External: N2YO · Heavens-Above · Gunter

§ Orbital elements

Epoch: 2026-05-24T17:00:36.448416Z

Period
94.27 min
Inclination
43.0005°
Eccentricity
0.0001769
Mean motion
15.27578209 rev/d
Perigee alt
481.8 km
Apogee alt
484.3 km
Semi-major
6,861.2 km
B*
-8.3539e-5
RAAN
251.9032°
Arg perigee
277.2706°
Mean anomaly
82.7945°
Rev number
18,243

§ Raw data

STARLINK-56851 55477U 23015AE  26144.70875519 -.00002560  00000+0 -83539-4 0  99942 55477  43.0005 251.9032 0001769 277.2706  82.7945 15.27578209182437

JSON: /api/v1/satellites/55477 · /tle

For live sub-satellite position, see the globe view (requires WebGL).

§ Visibility from observer

Set your observer location to see the next 7 days of passes ≥ 10°. The values pass through the URL so the page stays shareable.

No JS? Fill the form by hand. The geolocation button needs JavaScript.